Luverne, MN

10:31 AM CST on December 12, 2019 (GMT -0600)
Luverne

Weather History for KLYV - November, 2019

Change the Weather History Date:

Saturday, November 16, 2019

  Actual Average (KPQN) Record (KPQN)
Temperature  
Mean Temperature 42 °F -  
Max Temperature 50 °F 39 °F 71 °F (2001)
Min Temperature 35 °F 22 °F -7 °F (1997)
Degree Days  
Heating Degree Days 22    
Moisture  
Dew Point 31 °F    
Average Humidity 71    
Maximum Humidity 93    
Minimum Humidity 47    
Precipitation  
Precipitation 0.01 in - - ()
Sea Level Pressure  
Sea Level Pressure 29.99 in    
Wind  
Wind Speed 11 mph (South)    
Max Wind Speed 25 mph    
Max Gust Speed 29 mph    
Visibility 10 miles    
Events Rain    
Averages and records for this station are not official NWS values.
T = Trace of Precipitation, MM = Missing Value Source: NWS Daily Summary

Daily Weather History Graph

Daily Weather History Graph

Search for Another Location

Airport or City:

Astronomy

Nov. 16, 2019 Rise Set
Actual Time 7:19 AM CST 4:58 PM CST
Civil Twilight 6:48 AM CST 5:29 PM CST
Nautical Twilight 6:14 AM CST 6:04 PM CST
Astronomical Twilight 5:40 AM CST 6:38 PM CST
Moon 8:29 PM CST (11/16) 11:18 AM CST (11/16)
Length of Visible Light 10h 40m
Length of Day
9h 38m
Waning Gibbous, 82% of the Moon is Illuminated
Nov 16
Waning Gibbous
Nov 19
Last Quarter
Nov 26
New
Dec 4
First Quarter
Dec 11
Full

Hourly Weather History & Observations

Time (CST) Temp. Windchill Dew Point Humidity Pressure Visibility Wind Dir Wind Speed Gust Speed Precip Events Conditions
12:16 AM 35.6 °F 28.6 °F 30.2 °F 81% 30.13 in 10.0 mi South 9.2 mph - N/A   Clear
12:36 AM 35.6 °F 28.0 °F 30.2 °F 81% 30.12 in 10.0 mi South 10.4 mph - N/A   Clear
12:55 AM 35.6 °F 28.0 °F 30.2 °F 81% 30.12 in 10.0 mi SSE 10.4 mph 16.1 mph N/A   Clear
1:15 AM 35.6 °F 27.5 °F 30.2 °F 81% 30.11 in 10.0 mi SSE 11.5 mph 17.3 mph N/A   Clear
1:19 AM 35.6 °F 28.0 °F 30.2 °F 81% 30.11 in 10.0 mi South 10.4 mph 17.3 mph N/A   Clear
1:37 AM 35.6 °F 28.0 °F 30.2 °F 81% 30.10 in 10.0 mi South 10.4 mph 17.3 mph N/A   Clear
1:56 AM 35.6 °F 27.5 °F 30.2 °F 81% 30.09 in 10.0 mi South 11.5 mph 18.4 mph N/A   Clear
2:16 AM 35.6 °F 26.2 °F 30.2 °F 81% 30.09 in 10.0 mi SSE 15.0 mph 19.6 mph N/A   Clear
2:35 AM 35.6 °F 27.1 °F 30.2 °F 81% 30.08 in 10.0 mi SSE 12.7 mph - N/A   Clear
2:59 AM 35.6 °F 26.6 °F 30.2 °F 81% 30.08 in 10.0 mi South 13.8 mph 18.4 mph N/A   Clear
3:17 AM 35.6 °F 27.1 °F 28.4 °F 75% 30.07 in 10.0 mi South 12.7 mph 17.3 mph N/A   Clear
3:36 AM 35.6 °F 26.6 °F 28.4 °F 75% 30.06 in 10.0 mi South 13.8 mph 19.6 mph N/A   Clear
3:56 AM 35.6 °F 27.1 °F 28.4 °F 75% 30.05 in 10.0 mi South 12.7 mph - N/A   Clear
4:20 AM 35.6 °F 27.5 °F 28.4 °F 75% 30.05 in 10.0 mi South 11.5 mph - N/A   Clear
4:38 AM 35.6 °F 26.6 °F 28.4 °F 75% 30.04 in 10.0 mi South 13.8 mph - N/A   Clear
4:55 AM 35.6 °F 27.5 °F 28.4 °F 75% 30.04 in 10.0 mi South 11.5 mph - N/A   Clear
5:16 AM 35.6 °F 28.6 °F 28.4 °F 75% 30.05 in 10.0 mi South 9.2 mph - N/A   Clear
5:36 AM 35.6 °F 28.6 °F 28.4 °F 75% 30.04 in 10.0 mi South 9.2 mph - N/A   Clear
5:58 AM 37.4 °F 30.8 °F 28.4 °F 70% 30.04 in 10.0 mi South 9.2 mph - N/A   Clear
6:17 AM 37.4 °F 30.8 °F 28.4 °F 70% 30.04 in 10.0 mi South 9.2 mph - N/A   Clear
6:36 AM 35.6 °F 28.0 °F 28.4 °F 75% 30.04 in 10.0 mi South 10.4 mph 17.3 mph N/A   Clear
6:56 AM 35.6 °F 26.6 °F 28.4 °F 75% 30.03 in 10.0 mi South 13.8 mph - N/A   Clear
7:15 AM 35.6 °F 27.1 °F 28.4 °F 75% 30.03 in 10.0 mi South 12.7 mph 18.4 mph N/A   Clear
7:19 AM 35.6 °F 27.1 °F 28.4 °F 75% 30.03 in 10.0 mi South 12.7 mph - N/A   Clear
7:37 AM 35.6 °F 26.6 °F 28.4 °F 75% 30.04 in 10.0 mi South 13.8 mph - N/A   Clear
7:56 AM 35.6 °F 26.2 °F 28.4 °F 75% 30.04 in 10.0 mi South 15.0 mph - N/A   Clear
8:59 AM 37.4 °F 28.9 °F 28.4 °F 70% 30.03 in 10.0 mi South 13.8 mph 19.6 mph N/A   Clear
9:17 AM 37.4 °F 27.8 °F 28.4 °F 70% 30.02 in 10.0 mi South 17.3 mph 23.0 mph N/A   Clear
9:36 AM 39.2 °F 30.2 °F 28.4 °F 65% 30.02 in 10.0 mi South 17.3 mph 24.2 mph N/A   Clear
9:56 AM 41.0 °F 31.4 °F 28.4 °F 61% 30.01 in 10.0 mi South 21.9 mph 28.8 mph N/A   Clear
10:20 AM 42.8 °F 35.1 °F 28.4 °F 57% 30.00 in 10.0 mi South 16.1 mph 26.5 mph N/A   Clear
10:37 AM 42.8 °F 34.3 °F 28.4 °F 57% 30.00 in 10.0 mi South 19.6 mph 25.3 mph N/A   Clear
10:56 AM 44.6 °F 36.4 °F 28.4 °F 53% 29.99 in 10.0 mi South 20.7 mph 24.2 mph N/A   Clear
11:16 AM 44.6 °F 36.9 °F 30.2 °F 57% 29.99 in 10.0 mi South 18.4 mph 26.5 mph N/A   Clear
11:58 AM 46.4 °F 37.9 °F 30.2 °F 53% 29.96 in 10.0 mi SSW 25.3 mph 28.8 mph N/A   Clear
12:17 PM 46.4 °F 39.0 °F 30.2 °F 53% 29.93 in 10.0 mi South 19.6 mph 25.3 mph N/A   Clear
12:35 PM 46.4 °F 39.5 °F 30.2 °F 53% 29.92 in 10.0 mi South 17.3 mph - N/A   Clear
12:56 PM 46.4 °F 38.5 °F 30.2 °F 53% 29.91 in 10.0 mi South 21.9 mph 27.6 mph N/A   Clear
1:15 PM 48.2 °F - 30.2 °F 50% 29.91 in 10.0 mi South 18.4 mph 26.5 mph N/A   Clear
1:20 PM 48.2 °F - 30.2 °F 50% 29.91 in 10.0 mi South 13.8 mph 21.9 mph N/A   Clear
1:37 PM 50.0 °F - 30.2 °F 47% 29.90 in 10.0 mi South 19.6 mph 24.2 mph N/A   Clear
1:55 PM 50.0 °F - 30.2 °F 47% 29.90 in 10.0 mi South 18.4 mph - N/A   Clear
2:36 PM 46.4 °F 40.7 °F 30.2 °F 53% 29.90 in 10.0 mi South 12.7 mph 20.7 mph N/A   Clear
2:58 PM 46.4 °F 40.1 °F 30.2 °F 53% 29.90 in 10.0 mi South 15.0 mph 19.6 mph N/A   Clear
3:17 PM 46.4 °F 40.4 °F 30.2 °F 53% 29.90 in 10.0 mi South 13.8 mph 19.6 mph N/A   Clear
3:36 PM 46.4 °F 41.5 °F 30.2 °F 53% 29.90 in 10.0 mi South 10.4 mph - N/A   Clear
3:56 PM 46.4 °F 42.4 °F 30.2 °F 53% 29.91 in 10.0 mi South 8.1 mph - N/A   Clear
4:15 PM 44.6 °F 40.7 °F 32.0 °F 61% 29.92 in 10.0 mi SSW 6.9 mph - N/A   Clear
4:19 PM 44.6 °F 40.7 °F 32.0 °F 61% 29.92 in 10.0 mi South 6.9 mph - N/A   Clear
4:37 PM 42.8 °F 39.3 °F 32.0 °F 66% 29.93 in 10.0 mi SSW 5.8 mph - N/A   Clear
5:16 PM 41.0 °F - 32.0 °F 70% 29.92 in 10.0 mi Calm Calm - N/A   Clear
5:36 PM 41.0 °F - 32.0 °F 70% 29.92 in 10.0 mi Calm Calm - N/A   Scattered Clouds
5:59 PM 41.0 °F - 32.0 °F 70% 29.93 in 10.0 mi Calm Calm - N/A   Mostly Cloudy
6:16 PM 41.0 °F - 32.0 °F 70% 29.95 in 10.0 mi Calm Calm - N/A   Overcast
6:35 PM 39.2 °F - 32.0 °F 75% 29.95 in 10.0 mi Calm Calm - N/A   Overcast
6:56 PM 39.2 °F - 32.0 °F 75% 29.95 in 10.0 mi Calm Calm - N/A   Overcast
7:38 PM 37.4 °F - 32.0 °F 81% 29.95 in 10.0 mi Calm Calm - N/A   Overcast
7:56 PM 37.4 °F - 32.0 °F 81% 29.96 in 10.0 mi Calm Calm - N/A   Overcast
8:15 PM 37.4 °F - 32.0 °F 81% 29.97 in 10.0 mi Calm Calm - N/A   Overcast
8:35 PM 37.4 °F - 32.0 °F 81% 29.97 in 10.0 mi Calm Calm - N/A   Light Drizzle
8:58 PM 37.4 °F 34.9 °F 32.0 °F 81% 29.97 in 10.0 mi NW 3.5 mph - N/A   Drizzle
9:16 PM 37.4 °F - 32.0 °F 81% 29.97 in 10.0 mi Calm Calm - N/A Rain Light Rain
9:36 PM 37.4 °F 32.8 °F 32.0 °F 81% 29.97 in 10.0 mi WNW 5.8 mph - N/A Rain Light Rain
9:55 PM 37.4 °F 30.8 °F 33.8 °F 87% 29.97 in 10.0 mi NW 9.2 mph - 0.01 in Rain Light Rain
10:19 PM 39.2 °F 33.6 °F 35.6 °F 87% 29.97 in 10.0 mi NW 8.1 mph - N/A   Light Drizzle
10:37 PM 37.4 °F 32.1 °F 35.6 °F 93% 29.97 in 10.0 mi NW 6.9 mph - N/A   Light Drizzle
10:56 PM 37.4 °F 32.1 °F 35.6 °F 93% 29.97 in 10.0 mi NW 6.9 mph - N/A   Light Drizzle
11:16 PM 37.4 °F 30.3 °F 35.6 °F 93% 29.97 in 10.0 mi NW 10.4 mph 16.1 mph N/A   Light Drizzle
11:35 PM 37.4 °F 31.4 °F 35.6 °F 93% 29.97 in 10.0 mi NW 8.1 mph - N/A   Drizzle
11:58 PM 37.4 °F 30.8 °F 35.6 °F 93% 29.98 in 10.0 mi NW 9.2 mph - N/A Rain Rain